Location: Edinburgh
(55.9500°N, 3.1600°W)
Time: 18:05:28
(UTC+01:00)

Vanguard 1 - All Passes

Search period start: 17 October 2017 00:00
Search period end: 27 October 2017 00:00
Orbit: 650 x 3834 km, 34.3° (Epoch: 15 October)

Date Brightness Start Highest point End Pass type
(mag) Time Alt. Az. Time Alt. Az. Time Alt. Az.
17 Oct - 00:50:59 10° S 01:01:14 20° SE 01:14:10 10° E visible
17 Oct - 03:06:32 10° SW 03:21:47 35° SSE 03:41:05 10° ESE visible
17 Oct - 05:26:32 10° WSW 05:44:27 38° S 06:03:59 10° SE visible
17 Oct - 07:50:00 10° W 08:06:45 27° SW 08:22:35 10° SSE daylight
18 Oct - 01:09:58 10° S 01:21:17 24° SE 01:36:09 10° E visible
18 Oct - 03:26:48 10° SW 03:42:21 37° SSE 04:02:03 10° ESE visible
18 Oct - 05:47:23 10° WSW 06:05:05 37° SSW 06:24:15 10° SE visible
18 Oct - 08:11:45 10° W 08:27:00 23° SW 08:41:30 10° S daylight
19 Oct - 01:29:27 10° SSW 01:41:28 28° SSE 01:57:44 10° E visible
19 Oct - 03:47:13 10° SW 04:02:58 38° S 04:22:52 10° ESE visible
19 Oct - 06:08:23 10° WSW 06:25:42 34° SSW 06:44:17 10° SSE visible
19 Oct - 08:34:03 10° W 08:47:06 19° SW 08:59:41 10° S daylight
19 Oct - 23:36:42 10° SSE 23:42:31 13° SE 23:49:25 10° ESE visible
20 Oct - 01:49:15 10° SSW 02:01:47 31° SSE 02:19:05 10° ESE visible
20 Oct - 04:07:48 10° WSW 04:23:38 38° S 04:43:31 10° ESE visible
20 Oct - 06:29:32 10° WSW 06:46:13 31° SSW 07:04:00 10° SSE visible
20 Oct - 08:57:27 10° WSW 09:07:07 14° SW 09:16:33 10° SSW daylight
20 Oct - 23:54:33 10° SSE 00:02:25 17° SE 00:12:31 10° ESE visible
21 Oct - 02:09:19 10° SW 02:22:12 33° SSE 02:40:14 10° ESE visible
21 Oct - 04:28:29 10° WSW 04:44:19 37° S 05:04:00 10° SE visible
21 Oct - 06:50:56 10° WSW 07:06:39 27° SSW 07:23:20 10° SSE visible
22 Oct - 00:13:27 10° S 00:22:27 21° SE 00:34:39 10° E visible
22 Oct - 02:29:33 10° SW 02:42:43 35° SSE 03:01:14 10° ESE visible
22 Oct - 04:49:19 10° WSW 05:04:58 35° SSW 05:24:15 10° SE visible
22 Oct - 07:12:39 10° WSW 07:27:00 23° SW 07:42:09 10° S visible
23 Oct - 00:32:53 10° SSW 00:42:36 24° SE 00:56:20 10° ESE visible
23 Oct - 02:49:58 10° SW 03:03:19 36° S 03:22:04 10° ESE visible
23 Oct - 05:10:16 10° WSW 05:25:36 33° SSW 05:44:16 10° SE visible
23 Oct - 07:34:57 10° WSW 07:47:15 18° SW 08:00:09 10° S daylight
23 Oct - 22:44:12 10° SE 22:44:18 10° SE 22:44:24 10° SE night (unlit)
24 Oct - 00:52:40 10° SSW 01:02:52 27° SSE 01:17:43 10° ESE visible
24 Oct - 03:10:31 10° WSW 03:23:57 36° S 03:42:45 10° SE visible
24 Oct - 05:31:24 10° WSW 05:46:12 29° SSW 06:03:55 10° SSE visible
24 Oct - 07:58:25 10° WSW 08:07:23 14° SW 08:16:42 10° SSW daylight
24 Oct - 22:59:01 10° SSE 23:04:12 14° SE 23:10:33 10° ESE visible
25 Oct - 01:12:43 10° SSW 01:23:15 30° SSE 01:38:54 10° ESE visible
25 Oct - 03:31:12 10° WSW 03:44:37 35° S 04:03:13 10° SE visible
25 Oct - 05:52:46 10° WSW 06:06:43 25° SSW 06:23:09 10° SSE visible
25 Oct - 23:17:35 10° S 23:24:12 17° SE 23:33:01 10° ESE visible
26 Oct - 01:32:57 10° SW 01:43:44 31° SSE 01:59:55 10° ESE visible
26 Oct - 03:51:59 10° WSW 04:05:18 33° S 04:23:27 10° SE visible
26 Oct - 06:14:31 10° WSW 06:27:10 21° SW 06:41:47 10° S visible
26 Oct - 23:36:55 10° S 23:44:22 20° SE 23:54:50 10° ESE night (unlit)
